Location: Newark
(30.1000°N, 109.4667°E)
Time: 15:57:59
(UTC+00:00)

S-56A Canister/Altair - Visible Passes

Search period start: 19 February 2020 00:00
Search period end: 29 February 2020 00:00
Orbit: 633 x 2499 km, 38.9° (Epoch: 18 February)

Date Brightness Start Highest point End Pass type
(mag) Time Alt. Az. Time Alt. Az. Time Alt. Az.
19 Feb 9.7 11:32:28 10° WNW 11:42:45 46° SW 11:49:39 10° SSE visible
20 Feb 9.7 10:58:32 10° WNW 11:09:54 55° SW 11:17:26 10° SE visible
21 Feb 10.8 12:35:22 10° W 12:39:54 14° SW 12:43:44 10° SSW visible
22 Feb 10.8 12:00:29 10° W 12:07:16 19° SW 12:12:37 10° SSW visible
23 Feb 10.8 11:26:00 10° W 11:34:34 25° SW 11:41:02 10° S visible
24 Feb 10.8 10:51:41 10° WNW 11:01:47 31° SW 11:09:11 10° S visible
26 Feb 11.4 22:43:00 10° SSE 22:49:08 17° SE 22:56:25 10° E visible
27 Feb 11.5 11:23:12 10° WSW 11:25:58 11° WSW 11:28:32 10° SW visible
27 Feb 11.5 22:12:16 10° SSE 22:16:19 13° ESE 22:20:51 10° E visible
